STARLINK-11476, 62228

Orbit data source: Space-Track

STARLINK-11476, 62228 is a payload satellite owned by SpaceX/Seattle (US) in LEO that was launched on Thu, 05 Dec 2024 UTC via an FALCON 9 launch vehicle from the Air Force Western Test Range (AFWTR). Payloads include a variety of satellites, spacecraft, and rockets equipped with specific instruments for various scientific and technological missions. These include communications satellites like Starlink; space stations such as the ISS; scientific satellites like the Hubble; Earth observation satellites from companies like Planet Labs, Umbra, and HawkEye 360; GPS; miniature CubeSats for education and research; and military/defense satellites.

Loading next visibility...
STARLINK-11476 details
Identifier
62228, 2024-231L
Orbit
LEO
Last TLE update15 hours ago
Origin
Flag of USSpaceX/Seattle (US)
ManufacturerSpaceX/Seattle
MissionOperational spacecraft
Bus & MotorSTARLINK V2M, Unknown motor
Mass730 kg wet, ~700 kg dry
Launch date (UTC)
2024-12-05 (2 months ago)
Launch vehicle
FALCON 9
Launch site
Air Force Western Test Range (AFWTR)
Object type
Payload
Rocket body
Debris
Shape & HBRUnknown
Radar Cross SectionLarge (>1 m²)

Expand to show TLE details & history

TLE from 15 hours ago
0 STARLINK-11476
1 62228U 24231L   25025.17245417  .00001884  00000-0  20408-4 0  9996
2 62228  53.1624 314.7882 0001596  95.1015 265.0185 15.69710434  9262
Epoch: 2025-01-25T04:08Z
Definitive object data (Epoch: 2025-01-25T04:08:20.04Z)
Latitude-0.00002°
Longitude127.9796°
Altitude360.734 km
Speed7.694 km/s
True Right ascension20h 59m 09s
True Declination0° 00' 00"
Sunlit
Object was in daylight at TLE epoch
Visualization TLE readout
Latitude4.27084°
Longitude128.02456°
Altitude360.211 km
Speed7.695 km/s
Apparent Right ascension21h 30m 56s
Apparent Declination-62° 40' 56"
Sunlit
Object is in daylight
Visualization observer readout
Local Sidereal Time20:47:27
Azimuth174.906° S
Elevation-12.969°
Doppler factor1
Orbital elements
Apogee altitude361.061 km
Perigee altitude358.91 km
Semi-major axis6,738.123 km
Eccentricity0.0001596
Inclination53.1624°
RAAN314.7882°
Arg. of periapsis95.1015°
True anomaly265.00028°
Mean anomaly265.0185°
Eccentric anomaly265.00939°
Mean motion3.92405 °/min
BSTAR0.000020408
Orbital period91.74 mins
Loading maneuver chart data...
Loading historical data...
Loading historical data...
Loading historical data...
Loading historical data...
Loading historical data...
Loading historical data...
Loading historical data...

STARLINK-11476 Visibility forecast

Observer location: undefined°, undefined

Span
Click to sort rows by Start time (UTC) header in descending order
Start Az.
Max El. time (UTC)
Max El. Az.
Max El.
End time (UTC)
End Az.
4 mins2025-01-25 21:06:31.225Z182.578° SSW2025-01-25 21:08:31.225Z135.51° SSE20.844°2025-01-25 21:10:31.225Z83.928° E
4 mins2025-01-25 22:42:31.225Z281.749° WNW2025-01-25 22:43:31.225Z311.753° NW25.018°2025-01-25 22:46:31.225Z30.947° NE
|